Theta_e
309 308 308 308 308 308 308 308 308 307 306 306 306 306 306 306 306 305 305 304 304 305 306 307 307 306 306 305 306 306 306 305 305 306 306 305 304 302 300 298 297 296 296 296 296 296 296 296 295 294 294 293 293 294 294 294 293 292 291 290 290 290 290 290 291 292 292 290 289 290 289 289 289 289 289 289 289 289 289 289 289 289 288 288 288
310 309 307 306 307 308 308 308 308 307 307 307 306 306 306 306 305 305 305 304 304 304 304 305 306 306 305 305 305 304 303 303 304 304 304 303 302 300 299 298 296 296 296 296 296 296 296 296 296 295 294 293 293 293 293 293 292 291 290 290 290 290 291 290 290 292 292 291 290 290 289 289 289 289 289 288 288 288 288 288 288 288 288 288 288
310 309 308 306 306 307 307 307 308 308 308 307 306 305 305 305 305 305 304 304 303 303 303 304 305 305 304 304 303 302 302 302 302 301 301 300 299 298 298 297 296 296 296 296 296 297 297 297 296 296 295 293 293 292 292 292 291 291 290 290 290 290 291 291 291 292 292 291 292 292 292 291 290 289 289 289 288 288 288 288 288 288 288 288 287
309 310 308 305 305 306 306 307 307 308 308 307 306 305 304 305 305 304 304 304 303 303 303 303 303 303 302 302 301 301 300 300 299 299 299 298 297 297 297 296 296 296 296 296 296 297 297 297 297 296 295 294 293 292 292 291 291 291 290 290 291 291 291 290 291 292 292 293 293 293 291 292 294 293 289 289 289 288 288 288 288 288 288 288 287
310 309 308 306 305 304 305 307 307 307 308 308 307 306 305 305 305 304 304 303 303 302 302 301 301 301 301 300 299 299 298 297 297 297 296 296 296 296 296 296 295 295 296 296 296 296 297 297 297 296 295 294 293 292 292 292 291 291 291 290 291 292 292 291 291 291 292 293 294 294 293 295 297 293 290 290 289 288 288 287 288 288 288 288 287
310 309 308 308 305 303 304 305 306 307 307 308 307 306 306 305 304 304 303 303 302 302 301 301 301 300 300 298 297 297 296 296 296 296 295 295 296 296 295 295 295 295 295 296 296 296 296 296 296 296 295 294 293 292 292 291 291 291 291 291 291 292 293 292 291 291 291 292 293 295 296 297 296 291 290 292 289 287 288 287 288 288 288 288 287
309 310 309 310 307 304 304 303 304 305 305 305 304 304 304 304 303 303 303 303 302 301 301 300 300 300 299 299 298 298 297 297 297 297 296 296 296 295 295 295 295 295 295 295 296 296 296 296 296 296 295 295 294 292 291 291 291 292 291 291 291 291 293 293 292 291 291 291 292 293 293 293 294 292 292 293 292 290 287 286 287 287 288 288 287
310 311 310 310 307 303 303 302 301 302 302 303 303 303 303 302 302 302 302 302 301 301 300 300 300 299 299 299 298 298 298 298 297 297 297 296 295 295 295 294 294 295 295 295 295 295 296 296 296 296 295 295 294 293 292 291 291 291 291 290 290 291 292 293 293 293 292 291 291 291 291 292 293 293 292 293 295 295 290 286 286 286 287 287 287
310 310 311 309 304 301 301 301 300 300 300 301 302 302 302 302 301 301 301 301 301 300 300 300 300 299 299 299 298 298 298 298 298 297 297 296 295 295 294 294 294 294 294 295 295 295 295 296 296 295 295 295 294 293 292 291 291 291 290 290 290 291 291 292 293 294 294 293 292 290 290 290 290 291 290 290 292 295 293 289 287 286 286 286 286
309 308 308 305 302 301 300 300 300 299 299 299 300 301 301 301 300 300 301 301 300 300 300 300 300 299 299 298 298 298 298 298 297 297 297 296 295 295 294 294 294 294 294 294 294 295 295 295 295 295 295 295 295 294 292 291 291 291 291 291 291 291 291 291 292 293 294 294 294 293 291 289 289 288 288 288 289 291 292 290 288 287 288 287 286
309 306 304 301 300 300 300 299 298 297 298 299 299 299 300 300 300 300 300 299 299 300 299 299 299 299 298 298 298 298 298 297 297 297 296 296 295 295 295 294 294 294 294 294 294 294 294 295 295 295 295 295 295 295 293 292 291 291 291 291 290 291 291 291 291 292 294 294 294 294 294 293 292 291 289 288 289 289 291 291 288 286 287 287 286
306 302 302 300 299 299 298 298 297 296 297 298 298 298 299 299 299 299 299 298 298 299 299 299 299 298 298 298 298 298 298 297 297 297 296 296 296 295 295 294 294 294 293 293 294 294 294 294 294 294 295 295 295 295 294 293 291 291 290 290 290 290 290 290 290 291 293 293 293 293 294 295 294 294 293 291 290 290 290 291 288 286 286 286 285
301 300 300 298 298 297 297 297 296 295 296 296 297 297 297 298 298 298 298 298 297 298 298 298 298 298 298 297 297 297 297 297 297 297 296 296 296 295 295 294 294 294 293 293 294 294 294 294 294 295 295 295 295 295 294 293 291 290 290 290 290 290 290 290 290 291 292 293 293 293 293 293 293 293 293 291 291 289 289 290 287 285 286 286 285
299 299 298 297 297 296 296 295 295 294 295 295 295 296 297 297 297 297 297 297 297 297 297 297 298 298 297 297 297 297 297 297 297 297 296 296 296 295 295 295 294 294 294 295 294 294 294 295 295 295 295 295 295 294 294 293 292 291 290 290 290 290 290 290 290 290 291 292 292 293 293 293 292 292 291 290 290 289 288 288 287 285 285 284 284
298 297 297 296 296 295 295 294 294 294 294 294 294 295 295 296 296 296 296 296 296 296 297 297 297 297 297 297 297 296 297 296 296 296 296 296 296 296 295 295 295 295 295 295 295 294 294 295 294 294 294 294 294 294 293 293 292 291 290 290 290 290 289 289 289 289 290 291 291 292 292 292 291 291 290 290 290 290 289 288 288 288 287 285 284
297 297 296 296 295 295 295 294 294 294 293 294 294 294 294 295 295 295 295 296 296 296 296 296 296 296 296 296 296 296 296 296 296 296 296 295 295 295 296 296 296 295 295 294 294 294 294 294 293 294 294 293 293 293 292 292 291 290 290 289 289 289 289 289 289 289 290 290 291 291 291 291 291 290 289 289 289 289 289 289 288 289 290 289 287
296 296 296 295 295 295 294 294 294 294 293 293 293 294 294 294 294 295 295 295 295 295 295 295 295 296 296 296 296 296 296 296 296 296 295 295 295 295 295 295 295 295 295 294 294 293 293 293 293 293 293 292 292 292 291 291 291 290 290 289 289 289 289 289 289 289 289 289 290 290 290 290 290 289 289 289 288 288 288 288 288 287 288 289 289
296 295 295 295 295 294 294 294 293 293 293 293 293 293 293 293 293 293 293 294 294 294 294 294 294 295 295 295 295 295 295 295 295 295 295 295 295 295 295 295 295 295 295 295 294 293 293 293 292 292 292 291 291 291 291 290 290 290 289 289 289 289 289 289 288 289 289 289 289 289 289 289 289 289 289 288 288 288 288 287 287 287 286 287 288
295 294 295 294 294 294 294 293 293 293 293 293 293 293 293 292 292 292 292 293 293 293 293 294 294 293 294 294 295 295 295 295 295 295 295 295 295 295 295 295 295 295 295 294 294 294 293 293 292 292 291 291 291 291 290 290 290 289 289 288 288 288 288 288 288 288 288 288 288 288 288 288 288 288 288 288 287 287 287 287 287 286 286 286 286
293 293 293 293 293 293 293 293 293 292 292 292 292 292 292 292 292 291 292 292 292 293 293 293 293 293 293 293 294 294 295 295 295 295 294 294 295 295 295 295 295 295 294 294 294 294 294 293 293 292 291 291 291 290 290 289 289 289 289 288 288 287 288 288 288 288 287 288 288 287 287 287 287 287 287 287 287 287 287 287 287 286 286 285 284
292 292 292 292 292 292 293 292 292 292 292 292 292 292 292 291 291 291 291 291 291 292 292 293 293 292 292 292 293 293 293 294 294 294 294 294 294 294 294 294 294 294 294 294 294 293 293 293 293 292 292 291 291 290 290 289 289 288 288 287 287 287 287 287 287 287 287 287 287 287 287 287 287 287 287 286 286 286 286 286 286 286 285 285 284
292 291 291 292 292 292 292 292 292 292 291 291 291 291 291 291 290 290 290 290 291 291 292 292 292 292 292 292 292 292 292 293 293 293 294 294 294 294 294 294 294 293 294 293 293 293 293 293 293 292 292 291 290 290 290 289 288 288 287 287 286 286 286 286 286 287 287 287 286 286 286 286 286 286 286 286 286 286 286 286 285 285 285 285 284
291 291 291 291 291 291 291 291 291 291 291 291 291 291 291 290 290 290 290 290 290 291 291 292 292 292 292 292 292 292 292 292 292 292 293 293 293 294 294 293 293 293 293 293 293 293 292 292 292 292 291 291 290 290 289 289 288 288 287 287 286 286 286 286 286 286 286 286 286 285 285 285 285 285 285 285 285 285 285 285 285 285 285 284 284
290 290 290 290 290 290 291 291 291 291 291 291 290 290 290 290 290 289 289 289 290 290 290 291 291 292 292 292 292 292 292 291 291 291 292 292 292 293 293 293 293 292 292 292 292 292 292 292 292 291 291 290 290 290 289 288 288 287 287 287 286 286 286 286 286 286 286 286 286 285 285 285 285 284 284 284 285 285 284 284 284 284 284 284 283
290 290 290 290 290 290 290 291 291 290 290 290 290 290 290 290 289 289 289 289 289 289 290 290 290 291 291 291 292 292 291 291 291 291 291 291 291 292 292 292 292 292 292 292 291 291 291 291 291 291 291 290 290 290 289 289 288 287 287 286 286 286 286 286 286 286 286 286 286 286 285 285 284 284 284 283 284 284 284 284 284 283 283 283 282
290 290 290 290 290 290 290 290 290 290 290 290 290 289 289 289 289 288 288 289 289 289 289 289 290 290 290 290 291 291 291 291 291 291 291 291 291 291 291 291 291 291 291 291 291 291 290 291 291 291 290 290 290 289 289 289 288 288 287 286 286 286 286 286 286 286 286 286 286 286 285 285 284 284 284 283 283 283 283 283 283 283 283 282 281
290 290 290 290 290 290 290 290 290 290 289 290 289 289 289 289 289 288 288 288 289 289 289 289 289 289 289 289 289 290 290 291 291 291 290 290 290 291 290 290 291 291 291 291 290 290 290 290 290 290 290 290 289 289 289 288 288 287 287 286 286 285 285 285 285 285 285 285 285 285 284 284 284 284 284 284 283 283 283 283 283 282 282 281 281
290 290 290 290 290 290 290 290 290 289 289 289 288 288 288 288 288 287 287 288 288 288 288 288 288 289 289 289 289 289 289 290 291 291 291 290 290 290 290 290 290 290 290 290 290 290 290 290 289 289 289 289 289 289 288 288 287 287 286 286 286 285 285 284 284 284 284 284 284 284 284 284 285 285 284 284 284 284 283 282 281 281 281 280 280
291 290 290 290 290 290 290 290 290 289 289 288 288 287 287 287 287 286 286 287 287 287 287 287 288 288 288 288 288 288 288 288 289 290 291 291 290 290 290 290 290 290 290 290 290 289 289 289 289 288 288 288 288 288 288 288 287 287 286 286 285 285 284 284 284 284 284 284 284 284 284 284 284 284 284 284 285 285 284 283 282 281 280 280 279
291 291 290 290 290 289 290 290 289 288 288 288 287 287 286 286 286 285 285 286 286 287 287 287 287 288 288 287 287 287 287 287 288 289 290 291 291 290 290 290 290 289 289 289 289 289 289 288 288 288 288 288 288 288 288 288 287 287 286 286 285 285 284 284 284 283 283 283 283 283 283 283 283 283 283 283 284 284 284 284 284 283 281 280 279
291 290 290 290 289 289 289 289 289 288 288 287 287 286 286 286 285 284 285 285 285 286 286 286 287 287 287 287 286 286 286 287 287 288 289 290 291 291 290 289 289 289 289 289 289 288 288 288 288 288 288 287 287 288 287 287 287 287 287 286 285 285 284 284 283 283 282 282 282 282 282 282 282 282 282 282 283 283 283 283 283 283 283 282 281
291 291 290 290 290 290 289 288 288 287 287 287 286 285 285 285 284 283 284 284 284 284 285 285 286 286 286 286 286 285 285 286 286 287 287 289 290 290 290 289 289 289 289 288 288 288 288 288 288 287 287 287 287 287 287 287 287 286 286 286 285 285 284 283 283 283 282 282 282 281 281 281 281 281 281 281 281 281 281 282 282 282 282 282 282
291 291 291 290 289 289 288 288 288 287 286 287 286 285 285 284 283 282 283 283 283 283 283 284 285 285 285 285 285 284 285 285 286 286 286 287 288 289 289 289 288 288 288 288 288 288 288 287 287 287 287 287 287 287 287 287 286 286 286 286 285 285 284 284 283 283 282 282 281 281 281 281 281 281 281 281 280 280 280 281 281 280 280 280 280
292 291 291 290 288 288 288 288 288 286 286 286 285 284 284 283 282 282 282 282 282 282 283 283 284 284 284 283 283 283 284 285 286 285 285 286 286 287 288 289 288 288 287 287 287 287 287 287 287 287 287 287 287 287 287 286 286 286 286 286 285 285 284 284 283 283 282 282 281 281 281 280 280 280 280 280 280 280 279 279 279 279 279 279 278
291 291 291 289 287 287 288 287 287 286 285 285 284 283 283 282 281 281 281 281 281 281 282 282 283 283 282 281 281 281 283 285 285 285 285 285 285 286 287 288 288 287 287 287 287 287 287 287 287 286 286 286 286 287 286 286 286 286 286 286 285 285 284 284 283 282 282 282 281 281 281 280 280 280 280 280 280 280 279 279 278 278 277 277 277
290 290 289 288 287 287 287 287 287 286 285 284 284 283 282 281 280 280 280 280 280 281 281 282 282 281 280 280 279 280 283 285 285 284 284 284 284 285 286 287 287 287 287 287 286 286 286 286 286 286 286 286 286 286 286 286 286 285 286 286 286 285 284 283 283 282 282 281 281 281 281 280 280 280 280 280 280 280 280 279 278 277 277 276 277
289 289 289 288 288 287 286 286 286 285 284 284 283 282 281 280 280 279 279 279 279 280 280 281 281 280 279 278 277 279 282 285 284 283 283 283 283 283 284 285 286 286 286 286 286 286 286 286 286 286 285 285 285 286 285 285 285 286 286 286 286 285 284 283 282 282 281 281 281 280 280 280 280 280 280 279 280 280 279 278 278 277 276 277 277
288 288 288 288 287 286 285 285 285 284 283 283 282 281 280 279 279 279 279 279 278 279 279 279 279 278 277 276 276 279 282 283 282 281 281 281 282 283 283 284 285 285 286 286 286 285 285 285 285 285 285 285 285 285 285 285 285 286 286 287 286 285 284 282 282 281 281 280 280 280 280 280 280 279 279 280 280 279 279 278 278 277 277 277 277
287 287 287 287 286 285 285 284 283 283 282 282 281 280 279 279 278 278 278 278 278 278 278 278 277 276 275 275 275 278 281 281 280 279 279 279 280 281 282 282 283 284 285 285 285 285 285 285 285 285 285 284 284 284 284 284 285 286 287 287 286 285 283 282 281 280 279 279 279 279 279 279 279 279 279 280 280 279 278 278 278 277 277 277 277
286 286 286 285 284 284 283 282 282 281 281 280 280 279 278 278 277 277 277 277 277 277 277 277 276 275 274 274 274 276 278 279 278 277 277 277 279 280 281 282 282 283 284 284 285 284 284 284 284 284 284 284 284 284 284 284 284 286 287 287 286 285 283 281 280 279 278 278 278 278 278 278 278 278 279 280 281 280 278 278 278 277 277 277 276
285 285 284 283 283 282 281 281 281 280 280 279 279 278 277 277 277 276 276 276 276 276 276 275 274 273 273 273 273 275 277 276 275 275 275 275 277 278 279 281 281 282 283 283 284 284 283 283 284 283 283 283 283 283 283 283 284 285 287 287 286 284 283 281 279 278 277 277 277 277 277 278 278 278 279 281 281 280 278 278 278 278 277 277 277
284 283 283 282 281 281 280 280 280 279 279 278 277 277 276 276 276 276 276 276 275 275 274 273 272 272 272 272 273 274 274 273 273 273 273 274 275 276 278 279 281 281 282 282 283 283 282 282 282 282 283 283 283 283 283 282 283 285 286 287 286 284 283 281 279 278 277 276 276 276 277 278 278 278 279 281 282 281 279 278 277 277 277 277 276
282 282 282 281 280 279 279 279 279 278 278 277 276 275 275 275 275 275 275 275 274 273 273 272 271 271 271 271 272 272 271 271 271 271 272 272 273 275 277 279 280 281 281 282 282 282 282 281 281 281 282 282 282 282 282 282 282 284 285 287 286 285 283 281 280 278 277 276 276 276 276 277 278 278 278 281 282 281 279 278 277 276 276 277 276
281 281 280 280 279 278 278 278 278 277 277 276 275 275 274 274 274 275 274 273 273 272 271 270 270 270 270 270 270 270 269 269 269 269 270 271 273 275 277 278 280 280 281 281 281 282 281 281 281 280 281 281 281 281 281 281 282 283 284 286 286 285 283 282 280 279 278 277 276 276 277 277 278 279 279 281 282 282 279 277 276 277 277 277 276
279 279 279 278 278 277 277 276 276 276 276 275 274 274 273 273 274 274 273 272 271 270 270 269 269 269 269 269 268 268 268 268 268 268 269 271 273 274 276 278 279 280 280 280 281 281 281 280 280 280 280 280 280 280 280 280 281 281 283 285 286 285 283 282 281 279 278 277 277 277 277 278 279 280 280 281 282 282 280 277 277 278 278 277 276
278 278 278 277 276 276 275 275 275 275 274 274 273 273 273 273 273 272 272 271 270 269 268 268 268 268 267 267 267 267 267 267 267 268 269 271 272 274 276 277 279 280 280 280 280 281 281 280 280 280 280 279 279 279 279 279 280 281 282 284 286 285 283 282 281 280 279 278 277 277 277 278 280 281 281 281 282 282 281 279 278 279 278 277 276
277 276 276 275 275 274 274 273 273 273 273 273 272 272 272 272 271 271 270 269 268 268 267 267 267 266 266 266 266 266 266 266 267 268 269 270 272 273 275 277 278 279 280 280 280 280 280 280 280 280 280 279 278 278 278 278 279 280 281 282 284 285 283 282 281 280 278 278 277 277 278 279 280 280 281 281 281 282 281 280 279 278 278 277 276
275 275 274 274 273 273 272 272 272 272 272 271 271 271 271 270 270 269 268 267 266 266 266 266 265 265 265 265 265 265 265 266 266 267 268 269 270 272 274 276 277 279 279 280 280 280 280 280 280 280 280 279 278 277 277 278 278 279 280 281 283 284 283 282 280 279 278 278 278 278 278 279 280 281 281 280 280 281 281 280 278 277 277 276 276
273 273 272 272 272 271 271 271 271 271 270 270 269 269 269 268 267 267 266 265 265 265 264 264 264 264 264 264 264 264 264 265 265 266 267 268 269 271 273 275 277 278 279 279 280 280 280 281 281 280 280 280 279 278 278 278 278 278 279 280 282 283 283 282 280 279 278 278 278 278 278 278 279 280 279 278 278 277 276 276 276 276 275 274 274
272 271 271 270 270 270 269 269 269 268 268 267 267 267 266 265 265 264 264 264 263 263 263 263 263 263 263 263 263 263 264 264 264 265 266 268 269 270 272 274 276 277 278 279 280 280 280 281 281 281 280 280 280 280 280 279 279 278 279 280 282 283 283 281 280 279 278 278 277 277 278 278 278 277 276 275 275 274 273 273 274 275 275 274 274
270 270 269 268 268 267 267 266 266 265 265 265 264 264 263 263 263 262 262 262 262 262 262 262 262 262 262 262 262 263 263 263 264 264 266 267 268 270 271 273 275 276 277 278 279 280 281 281 281 281 281 280 281 280 280 279 279 279 280 280 281 283 283 281 280 279 278 277 277 277 277 277 276 275 274 274 274 273 273 272 271 271 272 273 273
Wind_Speed
11 16 20 17 17 17 18 20 22 24 25 28 30 33 35 36 37 39 40 40 40 40 41 42 42 41 40 43 48 48 47 46 47 49 50 51 51 50 50 49 48 48 47 46 45 44 42 41 40 39 38 38 38 37 36 34 33 31 30 28 26 24 22 20 18 17 15 14 12 13 14 15 15 15 15 14 13 12 12 12 11 9 8 7 5
9 14 17 13 13 13 14 15 17 21 25 27 30 32 34 35 38 38 38 39 42 43 43 44 46 46 45 47 48 45 45 47 48 49 49 49 49 49 49 49 48 49 48 47 46 45 44 42 40 40 39 39 39 37 36 35 34 33 31 29 26 24 23 22 22 19 13 13 13 10 9 10 12 13 13 12 11 10 12 12 11 9 8 7 6
10 14 14 10 11 11 10 12 14 20 24 27 29 30 31 34 36 36 36 39 42 43 44 45 45 43 41 40 39 37 39 43 44 44 45 46 46 47 47 48 49 49 48 48 47 46 45 43 41 40 40 41 40 39 38 37 36 35 33 31 28 25 22 23 25 20 13 16 14 7 3 4 5 7 9 10 9 9 10 10 8 6 6 6 5
13 15 12 10 12 13 11 13 15 18 22 25 27 28 30 33 35 36 37 39 40 42 43 42 38 37 35 33 32 33 33 36 37 38 41 43 43 45 47 48 48 49 49 48 47 47 45 44 43 42 42 42 42 42 41 40 39 37 35 33 31 27 23 23 27 22 18 17 9 3 2 2 2 6 9 9 9 11 9 8 7 5 4 4 3
11 14 12 8 9 14 16 16 16 19 22 24 25 26 29 31 33 35 36 37 38 40 40 37 34 33 32 27 25 27 26 28 33 37 38 40 43 46 47 48 48 49 49 49 48 48 47 46 45 44 44 43 43 44 43 42 41 39 38 36 34 31 27 25 26 25 23 19 10 4 3 1 1 4 7 7 10 13 11 10 9 6 4 1 1
6 10 11 9 10 13 16 16 16 20 22 22 22 23 25 28 29 32 34 35 36 37 38 37 36 35 34 31 28 27 26 30 38 40 39 41 44 46 46 48 49 49 49 49 48 48 47 46 46 45 45 45 45 44 44 43 42 41 40 39 37 33 29 26 26 26 25 22 16 10 6 3 4 7 5 2 7 12 12 11 11 9 7 2 1
5 8 9 10 11 11 13 14 15 19 21 20 20 19 21 23 25 28 31 33 33 35 36 37 37 36 37 36 34 33 33 35 39 38 38 42 42 42 45 47 48 49 49 48 48 48 47 46 46 45 45 45 45 45 45 44 43 42 41 41 38 34 30 27 28 27 25 21 19 16 11 7 9 10 6 2 2 7 11 12 12 11 9 4 2
6 8 8 9 10 10 15 19 19 20 22 21 18 16 17 19 21 24 27 30 31 32 35 36 37 36 37 36 35 36 36 33 32 32 34 37 37 38 42 44 46 47 47 47 48 47 47 47 46 45 45 45 45 45 46 45 44 43 42 42 40 37 32 29 29 29 26 22 20 17 12 11 14 13 10 7 3 1 5 9 11 11 9 6 4
6 8 10 9 9 15 21 26 28 26 25 23 19 15 13 14 17 19 23 26 28 30 33 35 37 36 36 36 34 34 32 28 27 29 31 33 35 37 38 41 44 45 46 47 47 47 47 47 46 46 45 45 45 45 45 45 44 44 44 43 42 40 36 30 28 30 29 26 22 19 14 13 13 11 11 9 4 2 3 3 6 8 7 7 6
8 7 8 11 16 21 25 29 30 28 25 23 21 17 13 10 11 14 18 22 25 28 31 34 35 35 35 35 33 31 29 27 25 27 30 32 34 35 37 39 42 44 45 46 47 47 47 47 46 46 46 45 44 44 45 45 45 45 45 44 43 42 39 33 29 29 30 28 25 23 20 16 11 7 10 11 5 2 1 1 6 8 5 7 8
10 9 10 16 23 26 28 28 25 27 29 26 22 19 16 11 8 10 13 16 20 24 27 30 33 34 34 34 33 31 29 28 27 28 30 32 34 36 37 38 40 43 45 45 46 47 47 47 46 46 45 45 45 45 46 46 46 46 45 44 43 43 40 35 31 29 29 29 26 25 24 21 16 12 15 18 11 5 3 2 5 9 6 6 8
10 11 13 18 22 25 27 26 25 31 34 32 26 21 17 13 10 8 9 11 15 19 23 27 29 31 31 31 32 31 29 30 30 30 32 34 36 36 36 37 38 40 41 44 46 46 47 46 46 46 46 46 46 46 46 46 46 46 45 44 44 43 41 37 34 31 30 30 28 26 24 23 21 17 17 20 18 14 10 3 4 8 5 5 9
11 12 14 14 15 18 21 24 28 32 34 32 29 24 20 16 12 9 8 9 11 15 19 23 27 29 30 29 30 30 29 31 32 32 32 34 34 34 36 37 38 39 41 43 45 46 46 47 48 49 49 49 48 47 46 46 46 46 46 45 45 44 42 40 37 34 32 31 30 28 26 23 22 19 15 16 19 18 13 6 5 6 3 2 7
12 12 13 13 13 15 20 24 28 30 33 33 30 27 24 20 16 12 10 9 10 13 16 20 24 26 27 28 28 28 29 30 32 31 32 32 33 33 35 37 39 41 44 46 47 47 47 49 50 50 50 49 49 48 48 47 47 46 46 46 45 44 43 41 39 36 33 32 31 29 28 26 24 22 18 17 19 20 17 12 8 4 1 2 3
12 11 12 13 14 18 22 25 28 30 33 34 33 32 30 26 22 18 14 12 11 13 15 18 22 23 25 26 26 26 27 28 29 29 29 30 32 33 34 37 39 42 44 45 45 46 48 49 48 48 48 48 48 48 48 48 47 47 46 46 46 45 44 42 40 38 35 34 33 31 29 28 26 24 23 20 20 20 19 18 14 6 2 2 1
11 11 12 13 16 21 23 25 28 31 33 35 37 36 33 31 28 25 22 19 16 15 15 18 20 22 24 25 26 27 27 27 28 28 28 29 30 32 34 37 38 39 40 40 41 43 46 47 46 47 47 47 47 47 47 48 48 47 47 47 47 46 45 44 42 40 38 36 35 33 31 30 28 27 25 22 21 21 19 18 18 13 6 3 2
10 9 10 12 16 21 24 26 29 30 32 35 36 36 35 34 33 31 29 27 24 20 18 18 20 22 24 25 26 27 28 29 29 29 29 29 29 31 33 34 36 37 38 38 38 40 42 44 45 46 46 45 46 46 46 46 47 47 48 49 49 47 46 45 44 42 40 38 36 35 33 31 30 28 27 25 23 23 22 20 19 19 13 6 3
9 10 11 13 17 22 25 26 28 29 32 33 34 35 35 36 35 34 33 32 30 27 24 21 20 22 23 25 26 27 28 29 29 29 29 29 30 32 33 34 35 36 37 37 37 38 39 42 43 43 44 44 45 45 46 46 46 47 48 48 49 48 47 46 45 44 42 40 38 36 34 33 32 30 29 28 27 26 25 24 21 21 19 14 7
10 11 11 12 16 21 23 26 29 32 33 34 34 35 36 37 37 37 35 34 34 33 31 27 23 21 22 24 26 27 28 30 30 30 30 30 32 33 34 35 36 36 36 37 37 38 39 41 42 43 44 44 45 46 46 46 47 47 48 47 47 47 47 46 45 44 43 41 40 38 37 35 34 33 31 31 30 29 27 26 24 22 22 21 15
9 9 9 10 13 18 23 27 31 34 35 36 36 37 38 38 39 39 39 39 39 38 36 34 30 25 22 22 24 26 28 30 31 32 32 33 34 35 36 37 37 37 37 37 38 39 40 41 42 43 44 45 46 46 46 46 47 47 48 47 47 47 46 47 46 44 43 42 41 40 39 38 36 35 35 34 34 33 31 29 27 26 25 23 21
9 9 9 10 14 20 24 26 28 30 33 35 37 38 39 40 41 41 40 41 42 42 41 39 36 32 27 25 24 25 26 28 31 32 34 36 37 37 36 36 37 37 38 38 39 39 40 41 42 44 45 46 46 47 47 47 47 48 47 46 46 46 46 47 46 45 44 44 43 42 41 40 39 39 38 38 37 35 33 32 30 29 28 26 24
10 10 10 10 14 19 22 24 26 28 30 31 32 34 35 37 39 40 40 40 40 40 41 41 39 37 34 30 27 26 26 27 28 30 33 35 37 38 38 36 36 37 38 38 39 40 40 41 42 44 46 47 47 48 48 48 48 49 47 46 46 47 48 47 47 47 47 46 44 44 43 42 41 41 40 40 40 38 36 35 33 32 31 29 26
9 9 9 10 14 18 20 23 25 26 27 28 28 29 31 32 34 37 39 40 39 39 39 39 39 39 38 35 32 29 26 26 27 29 31 33 35 37 38 37 37 37 37 38 38 39 40 41 43 44 45 46 47 48 48 49 50 50 50 48 48 50 50 49 49 50 49 48 46 46 45 45 43 42 42 41 40 39 38 37 36 34 32 31 29
8 8 8 10 14 17 18 20 21 22 24 25 25 27 29 31 33 35 37 38 39 39 39 38 37 38 38 37 36 33 29 27 26 28 30 31 33 34 35 36 37 36 36 37 38 39 40 41 43 44 44 46 47 48 49 50 51 51 51 51 51 52 52 52 53 53 52 51 50 49 48 47 46 45 44 43 41 40 40 38 36 35 33 32 30
9 10 10 11 12 14 15 18 19 21 23 24 25 27 29 31 33 34 35 37 37 37 38 37 35 35 36 37 37 36 33 30 28 28 29 30 31 31 32 34 35 35 36 37 38 39 40 41 43 44 45 46 47 48 49 51 51 51 50 50 51 52 54 54 54 54 54 55 54 53 52 50 49 48 46 45 44 42 40 39 37 35 34 32 30
7 8 9 10 11 12 15 18 19 21 23 25 26 27 28 29 29 31 33 34 35 35 36 36 35 33 32 34 36 36 36 35 32 30 29 29 29 29 30 31 32 34 36 37 38 38 40 42 44 44 45 46 47 47 49 51 52 51 50 49 49 51 53 54 54 54 55 56 56 55 53 53 52 52 50 47 46 43 41 40 38 37 35 33 31
4 5 6 7 9 10 14 17 19 20 21 21 22 24 25 25 26 29 30 31 32 33 33 34 34 33 32 33 34 34 35 36 35 33 31 29 28 28 29 30 31 33 35 36 37 38 40 42 44 44 44 45 45 46 48 49 50 51 51 50 49 49 50 51 52 53 53 54 55 54 53 54 55 54 53 50 48 46 43 42 40 39 36 35 33
5 5 6 7 7 8 11 15 19 20 21 21 20 21 22 22 24 27 29 29 30 30 30 31 31 31 32 34 35 34 34 35 35 35 34 32 29 28 28 29 30 32 34 35 37 39 40 41 42 43 43 43 43 45 48 48 48 49 49 49 49 49 49 48 48 49 51 52 54 53 52 54 55 54 53 52 50 48 46 44 41 40 38 36 34
5 6 6 6 6 6 8 12 16 19 22 23 23 24 24 23 24 26 27 27 28 28 28 28 28 28 29 33 35 36 37 38 38 37 37 35 33 30 29 28 29 31 33 35 36 37 39 40 40 41 41 41 43 45 47 48 48 48 47 48 48 48 48 47 45 46 48 50 52 52 52 53 53 53 51 50 49 49 48 47 44 43 41 38 36
5 5 5 5 5 6 8 10 13 16 19 20 22 25 26 26 27 28 28 28 28 27 27 27 27 27 28 30 31 33 36 38 39 38 38 37 36 33 30 29 28 30 32 34 35 36 38 39 38 39 40 41 43 45 46 47 48 49 48 47 46 46 46 45 44 45 46 48 49 50 50 50 50 50 49 48 48 47 47 46 45 45 43 41 38
5 5 5 4 5 6 7 9 11 14 17 17 19 22 24 26 28 30 30 30 28 27 26 26 26 26 28 29 29 30 32 34 35 36 37 37 37 35 32 30 29 29 30 32 34 35 36 37 38 38 40 41 43 44 44 45 48 50 49 47 45 45 44 44 43 43 44 46 47 47 47 46 47 48 47 46 46 46 45 44 42 42 42 41 39
5 5 5 5 5 5 6 8 11 14 15 16 18 20 20 22 27 30 31 31 30 28 27 27 26 26 27 29 30 30 31 31 31 32 33 34 35 35 33 31 29 29 29 30 32 34 35 36 36 37 39 41 42 43 44 45 47 49 50 48 45 44 43 43 43 42 42 43 44 44 43 43 45 46 46 44 43 43 43 42 39 38 39 39 37
6 6 6 5 6 6 8 10 12 14 15 16 17 18 17 20 24 28 29 30 30 30 30 29 28 27 28 30 31 32 32 32 32 32 33 33 33 33 32 31 30 29 28 28 30 32 33 34 35 37 39 40 42 42 43 45 46 48 50 49 46 44 44 44 44 44 43 43 43 43 42 42 43 44 44 44 43 41 40 39 37 36 37 37 35
6 7 6 6 7 9 11 12 14 16 17 18 17 17 17 19 23 25 26 27 28 28 29 29 29 30 30 31 32 33 33 33 33 33 33 33 32 32 32 31 30 28 27 28 29 30 32 33 34 36 38 39 41 42 42 43 45 47 49 50 48 46 45 46 47 47 46 45 46 46 46 45 44 44 45 45 44 42 39 38 37 36 36 36 34
6 7 7 7 9 11 13 14 15 17 18 19 19 18 19 21 23 24 24 24 25 26 26 26 27 30 32 33 34 34 33 32 33 33 33 33 33 33 33 32 30 28 27 28 28 29 30 31 33 35 37 38 39 40 40 42 44 46 47 48 48 46 45 44 45 46 46 46 47 48 49 49 47 47 47 47 46 44 41 39 37 36 37 36 34
7 7 8 10 12 13 15 17 18 19 20 20 20 19 20 23 25 25 25 25 25 25 25 24 25 28 31 34 36 36 34 32 32 33 33 32 32 33 34 33 31 30 29 28 28 29 30 31 32 33 35 37 38 37 39 40 42 43 44 44 45 45 44 42 41 42 44 45 46 47 49 50 49 48 48 47 47 45 42 39 37 35 36 35 32
10 12 14 15 15 15 17 18 19 20 21 21 20 20 21 24 26 25 25 26 25 25 24 24 24 26 28 32 34 35 33 32 32 32 32 32 32 32 33 33 31 31 30 28 29 29 30 31 32 32 33 36 37 36 37 39 40 41 41 41 42 43 42 41 39 40 42 43 44 47 48 49 49 48 47 44 45 46 43 40 38 35 33 32 29
14 16 17 17 16 17 18 19 19 21 22 20 19 20 21 24 26 25 25 25 25 25 25 24 25 26 28 31 32 31 30 31 32 32 32 33 33 32 32 31 31 30 30 29 29 29 30 30 31 32 33 35 37 36 35 37 38 39 40 41 40 39 40 39 37 37 39 41 43 44 47 49 49 48 46 41 40 44 44 41 38 36 34 32 30
16 16 17 18 18 18 19 20 20 22 23 20 19 20 20 22 25 25 25 25 25 24 24 25 27 29 31 32 31 28 28 30 32 33 34 35 35 34 33 32 31 30 30 30 28 28 29 30 30 32 33 34 35 35 34 35 36 37 39 40 39 37 37 35 33 33 35 37 40 41 43 47 48 48 46 41 38 41 43 41 39 38 37 35 34
17 17 17 17 17 18 19 20 22 23 24 22 21 21 21 22 24 24 24 26 26 26 25 26 29 31 33 34 32 29 28 29 31 34 36 36 35 35 35 34 32 31 31 29 28 27 29 30 30 30 32 33 34 34 34 34 34 35 38 40 39 37 35 33 30 31 32 34 37 39 41 44 46 47 45 39 36 38 41 42 41 41 41 39 36
18 18 17 16 17 19 20 22 26 26 26 25 23 22 24 24 24 24 26 27 27 27 27 28 30 32 34 35 33 30 29 31 33 34 35 36 36 36 36 35 33 32 31 29 28 27 28 29 30 29 31 32 33 33 33 33 33 34 37 40 41 39 37 33 30 31 34 36 38 40 40 39 40 42 41 37 35 36 39 42 43 43 42 38 34
18 19 18 16 17 20 22 26 30 29 27 26 23 23 26 26 24 27 29 27 25 26 28 30 33 34 35 34 32 31 32 35 36 35 34 37 39 38 36 35 33 32 31 30 29 26 25 27 28 28 30 31 32 32 32 33 34 34 37 41 43 41 38 35 33 32 34 37 39 42 41 37 35 38 40 37 35 35 36 40 42 40 36 31 31
17 20 20 16 17 21 25 29 32 31 30 27 23 24 27 27 28 32 30 26 25 27 28 31 34 36 36 34 32 33 35 36 37 36 34 37 40 38 35 34 32 31 30 29 29 26 24 25 25 26 28 30 30 31 31 33 35 35 37 40 42 42 40 38 36 34 35 38 41 42 42 37 35 39 41 39 37 35 35 39 40 36 31 28 29
15 21 23 20 18 22 26 30 33 34 33 29 25 24 26 29 33 35 31 27 28 29 29 32 34 35 36 36 35 36 38 37 38 38 36 36 37 35 34 32 30 28 26 26 26 24 22 21 22 24 27 29 29 30 31 33 36 37 37 38 39 40 41 41 38 34 35 40 43 43 42 39 37 40 40 39 38 36 34 37 38 33 30 28 29
17 23 25 23 21 23 26 29 33 36 35 32 27 24 26 31 34 33 30 29 31 31 32 35 36 36 36 37 38 39 39 38 38 37 34 34 34 33 31 30 28 26 25 24 24 22 21 21 21 21 24 26 28 29 30 32 35 36 37 37 36 36 39 41 40 35 33 37 41 42 42 40 38 37 36 36 38 37 33 34 35 33 31 32 32
21 23 24 23 23 24 26 28 33 37 35 32 29 25 27 32 33 31 30 30 31 33 35 37 39 39 38 37 38 40 40 39 38 35 32 32 32 31 30 29 27 26 25 24 23 22 21 21 21 21 23 24 25 27 29 31 32 33 34 35 36 33 34 37 39 36 32 32 36 39 39 38 36 35 35 36 37 37 33 32 34 33 33 34 34
22 23 24 23 22 24 25 27 32 37 35 32 31 29 29 31 32 30 30 31 32 33 36 39 41 42 41 39 38 38 38 38 37 34 32 31 31 30 29 29 27 25 24 23 22 22 20 20 20 22 22 22 23 25 27 28 30 31 31 33 34 33 32 33 35 34 31 30 32 34 34 34 33 33 34 34 33 34 33 33 34 33 33 35 35
24 24 23 23 22 24 25 27 31 36 37 35 34 34 32 31 31 30 30 33 35 35 35 39 42 43 42 41 39 37 37 37 37 36 35 35 35 33 30 29 29 27 25 23 22 22 22 23 22 22 21 20 20 24 27 29 31 32 32 31 31 31 31 32 32 31 29 28 30 31 30 30 31 31 31 31 31 31 31 32 34 34 33 34 34
25 25 25 25 25 26 27 29 32 36 38 39 39 39 36 32 32 32 32 34 38 39 39 40 42 41 41 40 38 37 36 35 35 36 36 37 38 35 33 33 33 32 30 28 27 27 27 27 26 25 23 19 19 24 31 33 33 33 34 33 32 31 33 33 32 32 31 28 29 30 29 29 29 28 27 28 29 28 27 29 33 34 33 33 32
26 27 28 28 28 28 29 31 34 37 39 41 42 43 40 36 35 35 35 36 39 40 40 40 38 36 35 35 35 35 34 33 33 33 34 36 38 37 35 35 36 35 33 32 32 34 34 32 29 30 30 28 27 30 31 31 30 31 33 35 34 33 34 34 33 34 34 31 29 28 28 28 28 26 25 28 30 29 29 29 30 32 34 33 30
27 26 27 30 32 33 32 33 36 39 40 41 44 45 44 41 38 37 36 37 38 37 36 36 34 33 33 33 33 33 33 32 32 31 31 32 34 35 35 35 37 37 36 35 36 38 38 36 33 33 33 32 31 29 28 27 27 29 31 34 34 32 33 35 36 36 33 30 28 27 26 27 27 26 26 28 30 31 30 29 27 27 30 31 30
Wind_Direction
298 303 294 297 300 297 291 284 276 267 258 250 242 237 234 230 227 225 222 219 215 212 210 208 207 207 208 211 215 217 217 217 219 220 221 222 222 221 220 219 219 219 218 218 217 217 215 213 211 208 208 208 208 208 206 203 200 197 195 195 195 190 184 179 175 168 146 122 118 124 131 139 142 144 147 147 145 148 153 153 147 143 138 130 129
312 303 296 313 321 314 306 291 277 269 263 254 245 240 236 230 227 225 221 216 214 213 210 209 209 208 208 212 214 215 215 216 217 219 219 220 220 220 219 218 218 218 218 217 217 216 215 212 211 209 209 208 209 209 207 204 201 199 197 193 194 191 186 181 175 169 158 146 139 125 121 137 144 146 148 147 144 143 150 153 146 138 132 122 119
312 300 303 345 353 337 319 296 278 268 266 260 253 246 238 231 228 225 220 217 215 213 211 211 212 211 211 213 214 213 216 217 217 219 219 219 219 218 218 218 217 218 218 217 216 216 215 214 212 211 210 209 208 207 206 205 202 200 199 195 192 189 188 185 181 179 174 158 146 134 140 150 161 174 173 170 171 166 163 164 158 144 127 117 119
305 300 311 6 0 334 312 291 280 270 264 260 255 248 240 234 230 225 222 219 215 213 213 212 212 211 212 216 216 214 217 218 217 220 220 219 218 218 218 218 218 218 218 217 216 216 216 216 215 213 212 211 209 208 206 205 204 202 199 197 193 188 187 187 188 189 178 164 147 100 125 155 211 207 195 201 206 196 191 192 189 172 140 120 128
299 305 317 344 326 307 299 289 280 271 266 264 259 252 246 241 235 228 223 220 216 214 211 209 207 206 206 210 211 210 213 213 212 217 218 216 217 217 217 217 217 218 218 218 217 218 218 217 216 215 213 211 210 210 209 207 206 204 201 199 198 195 191 187 191 195 186 179 173 140 128 200 232 168 174 206 217 206 204 209 211 207 189 135 128
300 303 305 308 298 293 294 292 283 275 275 278 275 264 255 248 240 231 224 220 217 213 209 206 205 202 199 197 195 196 201 206 209 212 212 214 217 217 217 217 218 218 218 218 218 218 218 217 216 215 213 211 210 210 210 209 207 206 204 202 202 201 197 190 191 195 194 195 197 191 194 211 167 146 149 204 217 212 216 220 226 228 225 234 132
321 295 299 307 303 300 301 305 300 291 292 295 294 286 269 254 243 233 226 221 217 213 208 205 203 202 201 199 198 198 202 210 213 213 214 215 216 216 216 216 217 217 217 217 217 217 217 217 216 216 214 212 210 209 209 210 210 208 207 205 204 203 200 197 195 194 194 202 208 208 210 202 171 161 168 165 180 214 221 223 230 231 230 240 203
321 310 317 303 296 312 321 323 322 317 315 314 311 304 287 266 248 236 228 222 217 213 208 205 204 203 204 205 207 208 210 214 215 214 216 215 214 215 215 215 216 216 216 216 216 217 217 216 216 215 215 213 211 211 211 212 212 210 208 207 206 204 204 205 203 197 193 197 201 201 203 193 179 176 184 181 152 180 205 215 224 223 229 232 207
316 320 315 305 326 343 339 337 341 344 342 337 333 326 310 282 258 239 228 222 217 214 210 208 208 207 207 208 211 214 216 218 217 215 216 215 213 214 215 215 215 214 215 216 216 216 216 216 216 215 215 215 213 213 213 213 213 212 210 208 207 207 207 209 212 207 202 200 197 193 186 178 179 184 186 181 168 157 172 195 200 202 221 216 196
331 327 317 331 354 356 351 350 354 0 2 356 351 346 338 311 273 247 232 224 219 216 213 211 210 209 210 211 213 216 216 217 218 215 214 213 212 212 214 214 214 214 214 215 215 215 216 216 216 216 216 217 216 215 214 213 214 214 214 212 210 210 209 210 215 215 211 208 204 197 186 174 171 178 187 184 170 154 175 167 178 182 190 195 196
339 338 351 358 0 1 359 355 358 10 16 12 6 360 353 340 306 269 245 232 224 219 216 214 213 212 214 215 216 218 216 214 214 212 211 210 209 211 213 214 215 215 214 214 215 215 215 215 216 217 217 218 217 216 215 216 216 216 216 215 213 212 211 212 215 216 214 211 209 206 201 196 194 198 201 195 184 171 172 148 178 185 181 191 199
347 350 8 5 1 3 0 356 4 17 19 15 11 8 4 358 341 306 272 249 236 227 222 219 217 217 220 221 221 221 219 216 215 214 212 210 209 209 210 212 214 215 214 214 214 214 214 214 215 215 216 217 218 218 218 218 218 217 216 216 215 214 213 212 214 215 214 212 211 210 211 212 210 214 213 205 201 198 191 159 149 175 186 203 197
5 8 14 7 2 3 358 360 12 18 17 15 13 11 10 9 2 339 306 279 256 242 233 228 225 225 225 227 228 226 224 223 222 221 218 215 212 209 208 209 211 212 214 215 215 214 214 214 215 215 217 218 219 219 219 218 217 217 217 217 216 215 214 213 214 215 215 214 214 212 211 214 214 216 217 210 207 200 192 171 144 164 172 172 194
17 17 15 10 7 4 2 8 16 19 17 17 16 14 14 14 10 357 336 311 283 261 249 241 237 235 234 235 235 234 233 231 229 227 226 222 218 214 213 212 212 214 216 217 218 216 216 217 217 217 217 217 217 217 217 217 217 217 217 217 217 216 215 214 215 216 215 215 215 213 212 214 213 213 214 212 206 199 194 183 159 147 164 148 206
19 18 17 14 9 10 13 15 19 21 22 23 21 17 15 14 10 3 350 333 312 287 269 258 252 247 244 244 244 243 242 242 239 237 234 230 225 221 220 218 218 219 220 220 219 217 217 217 217 217 217 217 216 216 216 216 216 216 217 217 218 217 216 215 215 215 215 214 214 214 214 213 211 211 213 215 212 208 207 199 181 161 157 180 213
19 15 15 13 11 15 18 19 21 23 25 27 27 23 19 16 13 7 358 347 331 311 290 276 267 261 256 253 251 250 250 249 248 245 243 240 235 229 227 225 224 224 223 222 220 218 218 217 216 217 218 217 217 216 216 215 215 215 215 216 217 217 216 215 215 215 215 214 214 214 214 213 211 211 213 214 214 212 214 212 201 190 181 169 178
17 14 15 13 14 18 18 19 20 22 24 27 28 28 26 24 22 18 12 4 352 336 316 297 282 273 267 263 259 255 253 252 252 251 248 246 243 239 235 232 229 227 226 224 223 221 220 218 217 218 217 218 218 217 216 216 215 215 215 215 216 215 215 215 214 214 214 214 214 214 213 212 210 210 212 212 212 212 212 213 211 205 199 184 170
10 13 18 16 18 19 17 19 20 21 24 25 25 26 26 26 25 23 20 15 9 359 345 326 306 288 278 271 266 263 259 256 255 254 252 249 246 243 240 237 235 232 230 227 225 224 222 220 219 218 218 218 218 218 217 217 216 216 216 216 216 215 214 213 214 214 213 212 212 213 212 211 210 210 211 211 211 213 212 211 212 211 208 204 197
13 16 17 17 18 17 15 17 19 20 21 21 21 22 23 23 22 22 20 17 15 11 5 355 338 314 295 282 274 269 266 263 260 257 255 251 248 245 242 239 238 236 233 230 228 226 225 222 220 220 219 219 219 219 218 217 216 216 215 215 215 214 213 212 212 212 212 211 210 211 210 209 210 210 210 211 210 211 212 211 211 210 211 213 211
15 16 16 17 19 17 18 19 19 19 18 17 17 17 18 17 17 17 16 14 13 12 9 5 357 343 321 302 288 277 271 267 264 260 257 255 252 248 244 241 239 237 235 232 231 228 226 224 222 221 220 219 219 218 217 217 216 215 215 214 213 213 212 212 212 211 211 211 210 210 209 208 208 208 209 209 209 209 210 209 209 209 210 213 212
12 12 11 12 15 16 20 20 20 21 19 17 16 14 15 14 13 13 12 11 10 8 7 5 2 357 344 328 312 296 283 273 266 262 259 257 256 253 250 245 242 239 236 233 232 230 228 226 224 222 221 220 219 218 217 217 216 215 214 214 213 211 210 211 211 210 210 211 210 209 208 208 208 208 208 207 207 207 207 206 206 207 208 210 210
8 10 7 7 12 13 16 18 20 21 19 17 16 14 14 12 11 10 10 9 8 6 5 4 3 2 357 348 336 320 304 288 275 267 261 258 256 255 254 250 245 242 239 236 233 231 229 227 225 223 222 220 220 219 218 216 216 215 213 212 211 210 208 208 209 209 209 209 209 208 208 207 207 208 208 207 206 206 205 204 204 204 206 208 208
5 6 5 7 9 10 13 16 17 18 17 15 14 13 12 10 9 9 8 7 5 4 4 3 3 3 1 358 352 342 327 308 291 279 270 264 259 256 254 251 248 245 241 238 235 232 230 228 226 224 221 220 220 219 218 217 216 215 213 212 211 210 208 207 207 208 208 207 206 207 207 206 206 206 206 207 206 205 204 203 203 203 204 206 207
5 4 6 8 9 11 13 13 14 14 13 13 12 11 10 9 8 7 5 4 3 2 2 2 2 0 0 0 358 353 344 328 311 296 285 276 269 262 256 253 250 247 244 240 237 234 231 228 226 224 222 220 219 219 218 218 217 216 214 213 212 211 209 208 209 209 208 207 206 206 206 205 204 203 204 205 205 204 204 204 203 203 203 204 206
4 1 4 4 6 10 9 9 9 9 9 9 9 9 9 7 6 4 2 1 1 0 359 359 358 357 358 359 358 356 352 342 330 316 303 293 283 273 265 258 252 248 246 243 239 234 231 229 227 225 223 221 220 219 218 218 218 217 216 215 214 213 211 210 210 210 209 208 208 207 206 204 203 201 201 203 203 202 203 204 203 203 202 203 204
0 0 2 359 0 2 2 4 5 4 5 6 6 6 5 4 2 1 359 358 358 358 357 356 355 354 354 355 356 356 354 350 343 332 322 310 299 287 277 267 259 253 248 244 240 236 232 231 230 228 226 224 222 220 219 219 219 218 217 216 216 215 213 212 211 211 211 210 209 208 206 205 203 202 201 201 201 201 201 202 203 202 201 200 199
1 3 0 359 358 355 355 357 357 359 1 3 4 3 1 359 358 357 356 356 355 355 354 353 352 351 350 351 352 352 352 351 349 344 337 327 315 303 291 279 269 260 253 246 242 239 236 234 232 230 228 226 224 222 221 220 219 218 217 216 216 216 215 214 213 212 211 211 210 208 207 206 206 204 203 202 199 198 199 201 202 201 198 196 195
3 1 360 2 356 349 349 350 351 352 354 356 359 359 358 356 354 353 354 353 352 352 351 350 349 348 347 347 347 347 348 349 349 349 347 341 332 319 306 294 281 268 259 252 246 242 240 237 235 232 229 227 225 224 223 221 219 218 217 216 217 216 215 215 214 213 212 211 210 208 208 209 209 207 206 205 202 200 198 198 199 199 196 193 192
351 350 351 351 346 345 344 344 347 349 350 352 353 353 354 353 351 351 351 350 350 348 347 346 346 345 343 344 344 345 345 346 348 350 349 347 342 333 322 307 292 277 267 259 252 247 242 239 236 233 231 228 226 226 224 222 220 218 217 218 218 217 216 215 214 213 212 211 210 209 210 211 210 208 207 207 206 205 202 199 197 196 194 193 191
329 328 331 332 335 336 334 338 345 346 347 349 348 348 348 347 347 347 347 348 347 345 343 343 342 341 340 340 341 342 343 344 345 346 347 346 344 340 332 319 304 289 276 266 257 250 245 241 238 235 232 230 228 228 227 225 222 220 218 218 219 219 218 216 215 213 212 212 211 210 210 210 210 208 207 207 206 206 206 206 203 199 196 194 190
311 312 316 317 320 323 325 333 338 340 341 343 343 343 342 342 343 343 343 344 343 341 340 338 337 336 336 337 338 338 339 339 340 341 343 343 343 341 336 327 315 301 286 273 262 254 248 243 240 237 234 232 231 231 229 227 226 223 220 219 218 219 219 218 217 214 212 212 211 210 209 209 208 207 206 206 205 205 205 206 206 205 203 200 196
303 304 303 303 307 310 312 317 325 331 332 333 335 336 337 338 338 338 339 339 339 339 336 334 334 334 334 336 336 335 334 334 335 336 337 339 340 339 336 331 321 309 296 281 267 258 252 247 243 240 237 235 235 234 231 229 227 225 223 221 219 219 218 218 218 217 214 212 210 208 208 208 207 206 204 203 203 204 204 203 204 205 205 206 207
285 286 285 284 288 295 300 308 317 321 321 323 327 329 329 331 332 333 335 336 336 335 334 333 333 333 334 335 334 333 331 331 332 332 333 334 335 336 335 330 323 314 302 286 273 263 257 251 246 242 241 239 238 236 233 231 229 226 224 222 220 219 218 217 217 217 215 213 210 207 206 207 207 205 204 202 200 200 201 202 203 203 203 205 208
272 276 277 276 282 290 297 301 307 312 315 317 320 322 321 323 327 329 329 330 330 330 330 331 331 332 333 333 333 331 329 328 329 330 330 331 331 331 331 329 324 317 304 290 279 269 261 254 249 246 244 243 241 239 236 232 230 227 225 223 221 221 220 219 218 216 214 212 210 208 206 205 204 203 202 200 198 196 195 196 197 199 201 204 205
267 269 268 272 281 289 295 296 299 306 309 310 314 318 318 319 323 324 322 322 323 323 325 326 327 328 330 331 332 330 326 325 326 327 327 327 327 328 328 327 322 315 307 296 285 275 266 259 253 249 247 246 244 241 238 235 231 228 225 223 222 222 222 221 219 217 214 212 211 209 207 205 202 201 201 200 197 195 191 190 192 194 197 200 201
260 261 259 265 274 283 289 291 295 301 303 304 308 313 314 316 319 319 317 318 319 318 320 322 323 325 326 328 329 327 323 322 323 324 323 323 323 323 324 324 320 315 309 300 289 280 272 265 259 253 249 249 248 245 240 237 232 228 224 222 221 222 222 222 221 218 215 213 211 210 208 206 204 202 201 200 198 195 190 188 188 190 194 196 197
265 269 268 269 274 282 287 289 291 295 296 298 301 306 310 312 314 314 314 315 314 313 315 317 318 320 321 323 325 322 318 318 320 321 320 319 318 318 318 318 316 311 307 300 292 284 276 269 262 256 252 251 251 248 242 238 233 226 221 220 220 221 222 222 221 218 215 213 212 211 209 207 204 202 199 196 196 194 190 187 186 186 188 192 195
271 275 276 277 281 288 290 289 289 290 291 293 295 299 304 306 307 309 309 308 307 308 311 313 313 315 317 319 320 317 312 312 315 316 315 315 315 312 312 312 309 304 300 297 293 286 279 272 264 258 254 252 251 250 244 240 234 225 219 219 220 220 221 222 220 217 215 213 212 212 210 207 204 201 197 193 192 193 191 187 185 184 186 191 194
273 274 275 279 286 292 292 290 289 288 291 294 295 296 299 297 298 301 301 299 299 301 306 308 309 311 314 315 315 311 306 307 310 312 312 313 311 309 308 307 305 300 296 293 290 284 278 273 267 261 257 253 252 251 245 240 233 223 219 220 220 219 219 219 216 213 212 211 210 210 209 207 205 201 197 192 191 193 192 188 185 184 187 191 194
277 278 278 283 289 291 290 289 288 289 294 297 296 296 294 291 292 294 291 291 295 299 302 303 305 309 311 312 312 307 303 304 306 308 310 309 308 307 306 305 303 300 295 291 286 281 276 273 268 264 258 253 250 249 246 240 231 221 218 219 219 218 217 214 211 207 204 204 205 205 205 205 204 201 196 193 192 194 194 191 189 189 191 194 195
279 285 288 291 292 290 289 289 289 291 295 296 296 295 291 291 293 289 285 289 296 299 300 302 304 307 308 309 309 304 301 303 305 306 307 306 304 304 303 302 301 298 294 288 283 278 273 271 268 263 258 254 249 246 243 240 232 223 219 219 218 217 215 210 205 203 201 199 199 199 199 199 197 196 195 193 194 196 197 196 195 197 198 197 193
287 293 296 297 296 294 292 291 292 294 294 296 296 293 291 293 291 286 287 295 298 297 299 302 304 305 305 305 304 301 300 303 304 305 305 303 303 303 301 299 297 295 291 286 282 276 270 268 266 261 256 253 250 246 241 237 232 226 222 221 219 217 214 208 203 201 201 200 199 198 197 193 190 192 194 194 194 196 198 200 201 200 198 194 189
295 298 299 299 295 292 291 291 294 294 294 295 295 291 292 292 288 287 294 300 298 297 300 301 301 302 302 301 299 299 300 301 302 303 302 299 299 299 298 297 294 291 289 285 282 278 271 268 266 262 257 253 250 245 240 236 232 227 224 224 222 218 213 209 205 203 202 201 199 199 196 191 188 192 195 195 194 194 197 201 202 198 192 187 184
294 296 299 301 294 289 289 290 291 292 293 293 291 288 288 286 286 291 299 300 299 300 301 298 298 298 298 297 298 298 298 299 299 300 299 295 293 294 294 293 290 286 283 280 278 275 269 264 263 262 259 255 249 244 239 234 232 228 226 226 224 218 214 212 210 207 206 204 201 200 198 192 191 195 195 195 195 194 195 198 197 190 183 181 180
295 293 296 298 292 288 287 287 288 290 290 291 291 288 284 283 287 295 299 299 300 302 300 297 296 295 294 295 296 296 296 296 296 296 294 290 289 290 289 288 286 282 277 273 271 268 261 256 255 254 253 250 246 241 237 233 230 227 226 227 225 216 210 212 212 208 207 207 204 203 200 195 194 196 194 194 196 194 191 190 189 184 181 181 182
294 293 295 296 294 290 288 287 288 290 290 292 293 289 283 284 291 297 298 299 301 301 299 297 296 295 294 295 295 295 295 295 294 291 287 283 283 283 282 282 281 277 271 268 266 263 257 252 250 248 246 244 239 235 234 231 227 223 222 225 227 219 207 207 211 209 207 205 203 201 198 194 194 195 193 193 196 194 189 184 184 185 183 182 183
291 294 298 299 296 291 289 290 290 292 294 295 295 291 288 289 294 298 299 301 301 298 296 295 294 295 295 295 294 293 292 293 292 290 286 282 279 277 276 275 274 271 268 265 262 259 255 249 248 247 244 240 235 231 230 228 225 222 218 218 223 220 206 201 205 205 202 198 195 194 195 194 194 193 192 193 194 193 190 185 183 184 185 184 186
295 300 303 301 296 292 292 292 291 293 297 298 296 295 294 295 298 301 303 303 300 296 294 292 292 293 294 293 293 291 290 290 289 287 285 282 280 277 273 268 266 263 263 262 259 256 253 249 247 246 243 238 232 227 227 225 223 221 216 212 214 212 202 196 197 196 192 189 187 188 190 191 192 192 191 190 188 188 188 184 178 177 180 183 186
302 306 306 302 298 296 296 294 293 296 299 300 298 297 298 300 301 303 304 302 298 295 293 290 290 290 291 291 291 290 288 288 287 286 284 280 277 274 271 269 267 262 259 259 259 257 255 252 250 246 240 233 228 228 229 228 224 222 218 211 207 203 197 194 193 189 184 180 179 181 184 186 189 188 182 177 175 174 172 171 169 172 176 178 179
307 308 307 304 302 302 301 299 298 300 301 300 299 299 301 303 303 303 302 298 295 293 291 289 288 289 290 291 291 290 289 288 287 286 285 282 279 274 268 267 267 266 262 258 257 257 256 254 252 248 244 239 238 239 238 232 225 222 220 215 209 202 195 191 188 183 179 176 176 179 183 184 183 179 171 166 166 164 161 161 165 171 177 177 179
309 310 310 309 308 307 305 303 303 304 303 301 301 301 303 304 304 303 300 295 292 290 288 287 288 289 289 291 290 289 289 288 286 283 282 281 281 278 270 264 262 263 263 261 259 257 256 255 252 250 249 246 243 244 242 233 222 219 220 218 213 205 196 187 180 176 176 178 178 179 182 182 178 174 169 166 165 165 164 163 163 169 175 179 184